Starlink 32651

operational
NORAD ID: 62314 Int'l Des: 2024-239 Owner: SPXS Country: US Constellation: starlink
LEOCIRCULAR

About Starlink 32651

Description loading...

Live Position

Loading 3D Globe...

Upcoming Passes

Altitude History

Altitude vs Time

uPlot chart will show altitude changes over time

Two-Line Element Set

1 62314U 24239P 25352.88619697 .00025680 00000-0 87563-3 0 9990
2 62314 53.1585 209.1651 0001515 146.7280 213.3817 15.30218963 57015
Epoch: Dec 18, 2025 • Age: 24 hours

Current Status

Altitude 481.0 km
Velocity 7.63 km/s
Sub-Earth Point 52.55°N, 124.63°W
Launch Date Dec 13, 2024
Age 1 years
Type internet

Technical Details

Classification Payload
Mass 730.00 kg
Dry Mass 700.00 kg
Total Mass 730.00 kg
Length 0.30 m
Diameter 4.10 m
Span 29.00 m
Shape Box + pan
Manufacturer SPXS
Bus Type Starlink V2M
Phase Status In Orbit
Owner/State SPXS/US

Large Constellations

Loading constellations...